This is the latest recevied weather packets stored in our database for station/object DB7GV-8. If no packets are shown the sender has not sent any weather packets the latest 10 day(s).
| Time | Temp. | Humidity | Pressure | Rain* | Wind** | Luminosity | Snow |
|---|---|---|---|---|---|---|---|
| 1777398033 | 18.89° C | 45% | 1016.2 hPa | - | - | - | - |
| 1777397127 | 19.44° C | 42% | 1016.1 hPa | - | - | - | - |
| 1777396222 | 20° C | 38% | 1016 hPa | - | - | - | - |
| 1777395317 | 20.56° C | 34% | 1015.9 hPa | - | - | - | - |
| 1777394411 | 21.11° C | 33% | 1015.9 hPa | - | - | - | - |
| 1777393506 | 21.11° C | 32% | 1015.8 hPa | - | - | - | - |
| 1777392601 | 21.67° C | 30% | 1015.8 hPa | - | - | - | - |
| 1777391695 | 21.67° C | 30% | 1015.7 hPa | - | - | - | - |
| 1777390790 | 22.22° C | 28% | 1015.6 hPa | - | - | - | - |
| 1777389884 | 22.78° C | 27% | 1015.6 hPa | - | - | - | - |
| 1777388979 | 22.78° C | 28% | 1015.5 hPa | - | - | - | - |
| 1777388073 | 23.33° C | 28% | 1015.6 hPa | - | - | - | - |
| 1777387168 | 23.89° C | 28% | 1015.6 hPa | - | - | - | - |
| 1777386262 | 23.33° C | 27% | 1015.5 hPa | - | - | - | - |
| 1777385357 | 24.44° C | 28% | 1015.5 hPa | - | - | - | - |
| 1777384452 | 24.44° C | 27% | 1015.5 hPa | - | - | - | - |
| 1777383547 | 24.44° C | 26% | 1015.6 hPa | - | - | - | - |
| 1777382641 | 25° C | 24% | 1015.6 hPa | - | - | - | - |
| 1777381736 | 25° C | 26% | 1015.7 hPa | - | - | - | - |
| 1777380830 | 25° C | 25% | 1015.8 hPa | - | - | - | - |
| 1777379925 | 25° C | 25% | 1015.9 hPa | - | - | - | - |
| 1777379019 | 24.44° C | 25% | 1015.9 hPa | - | - | - | - |
| 1777378113 | 25.56° C | 25% | 1015.9 hPa | - | - | - | - |
| 1777377208 | 25° C | 25% | 1016 hPa | - | - | - | - |
| 1777376303 | 24.44° C | 25% | 1016.1 hPa | - | - | - | - |
* Rain since midnight (hover to see other rain measurements)
** Current wind speed in m/s (hover to see current wind gust speed)